When you browse on this site, cookies collect data to enhance your experience and personalize the content and advertising you see.
Visit our Privacy Policy to learn more. By continuing to use the site, you agree to this use of cookies and data.
  • In United Kingdom
  • List of Countries
  • For 7 days
  • Water Temperature
  • Satellite Maps
  • Weather Map
  • Weather Widgets
  • user-avatar
    Login

    Hourly Weather Shurci

    Today, 16 January, Wednesday

    Time Temperature Precipitation Wind Pressure Humidity
    00:00 +11°C° 0 mm 1 mps 722 mmHg 58%
    01:00 +11°C° 0 mm 1 mps 722 mmHg 58%
    02:00 +11°C° 0 mm 1 mps 722 mmHg 58%
    03:00 +11°C° 0.2 mm 1 mps 722 mmHg 60%
    04:00 +10°C° 0.2 mm 1 mps 723 mmHg 63%
    05:00 +10°C° 0 mm 1 mps 723 mmHg 75%
    06:00 +10°C° 0.3 mm 1 mps 723 mmHg 77%
    07:00 +9°C° 0.3 mm 1 mps 723 mmHg 79%
    08:00 +9°C° 0.3 mm 1 mps 723 mmHg 80%
    09:00 +10°C° 0 mm 1 mps 724 mmHg 76%
    10:00 +11°C° 0 mm 1 mps 724 mmHg 72%
    11:00 +12°C° 0 mm 0 mps 724 mmHg 67%
    12:00 +13°C° 0 mm 1 mps 724 mmHg 65%
    13:00 +14°C° 0 mm 1 mps 724 mmHg 62%
    14:00 +14°C° 0 mm 1 mps 724 mmHg 59%
    15:00 +14°C° 0 mm 1 mps 724 mmHg 59%
    16:00 +14°C° 0 mm 2 mps 724 mmHg 60%
    17:00 +13°C° 0 mm 3 mps 724 mmHg 60%
    18:00 +12°C° 0 mm 3 mps 724 mmHg 61%
    19:00 +11°C° 0 mm 4 mps 724 mmHg 62%
    20:00 +10°C° 0 mm 4 mps 724 mmHg 63%
    21:00 +9°C° 0 mm 5 mps 724 mmHg 58%
    22:00 +9°C° 0 mm 6 mps 724 mmHg 54%
    23:00 +8°C° 0 mm 6 mps 724 mmHg 49%

    Tomorrow, 17 January, Thursday

    Time Temperature Precipitation Wind Pressure Humidity
    00:00 +8°C° 0 mm 6 mps 724 mmHg 47%
    01:00 +8°C° 0 mm 6 mps 724 mmHg 45%
    02:00 +8°C° 0 mm 6 mps 723 mmHg 43%
    03:00 +8°C° 0 mm 6 mps 723 mmHg 43%
    04:00 +8°C° 0 mm 6 mps 723 mmHg 42%
    05:00 +8°C° 0 mm 6 mps 723 mmHg 42%
    06:00 +8°C° 0 mm 5 mps 723 mmHg 42%
    07:00 +8°C° 0 mm 5 mps 723 mmHg 43%
    08:00 +7°C° 0 mm 5 mps 723 mmHg 43%
    09:00 +9°C° 0 mm 5 mps 723 mmHg 39%
    10:00 +11°C° 0 mm 6 mps 723 mmHg 35%
    11:00 +14°C° 0 mm 6 mps 723 mmHg 30%
    12:00 +15°C° 0 mm 7 mps 723 mmHg 27%
    13:00 +16°C° 0 mm 7 mps 722 mmHg 24%
    14:00 +17°C° 0 mm 7 mps 721 mmHg 21%
    15:00 +16°C° 0 mm 6 mps 721 mmHg 22%
    16:00 +16°C° 0 mm 6 mps 720 mmHg 22%
    17:00 +15°C° 0 mm 5 mps 720 mmHg 22%
    18:00 +14°C° 0 mm 5 mps 720 mmHg 23%
    19:00 +13°C° 0 mm 5 mps 720 mmHg 23%
    20:00 +12°C° 0 mm 5 mps 720 mmHg 24%
    21:00 +12°C° 0 mm 5 mps 719 mmHg 23%
    22:00 +12°C° 0 mm 5 mps 719 mmHg 22%
    23:00 +12°C° 0 mm 5 mps 719 mmHg 21%

    Day after tomorrow, 18 January, Friday

    Time Temperature Precipitation Wind Pressure Humidity
    00:00 +12°C° 0 mm 5 mps 718 mmHg 21%
    01:00 +12°C° 0 mm 5 mps 718 mmHg 21%
    02:00 +11°C° 0 mm 6 mps 717 mmHg 21%
    03:00 +12°C° 0 mm 5 mps 717 mmHg 22%
    04:00 +12°C° 0 mm 5 mps 716 mmHg 23%
    05:00 +10°C° 0 mm 5 mps 716 mmHg 23%
    06:00 +12°C° 0 mm 5 mps 716 mmHg 24%
    07:00 +12°C° 0 mm 5 mps 716 mmHg 24%
    08:00 +12°C° 0 mm 4 mps 716 mmHg 24%
    09:00 +12°C° 0.2 mm 4 mps 716 mmHg 27%
    10:00 +13°C° 0.2 mm 4 mps 716 mmHg 29%
    11:00 +13°C° 0.2 mm 4 mps 716 mmHg 31%
    12:00 +14°C° 0.1 mm 5 mps 716 mmHg 31%
    13:00 +15°C° 0.1 mm 6 mps 716 mmHg 30%
    14:00 +16°C° 0.1 mm 6 mps 716 mmHg 30%
    15:00 +15°C° 0.1 mm 5 mps 717 mmHg 34%
    16:00 +14°C° 0.1 mm 3 mps 718 mmHg 39%
    17:00 +15°C° 0.1 mm 1 mps 718 mmHg 43%
    18:00 +14°C° 0.1 mm 1 mps 719 mmHg 46%
    19:00 +13°C° 0.1 mm 2 mps 720 mmHg 49%
    20:00 +12°C° 0.1 mm 2 mps 721 mmHg 51%
    21:00 +12°C° 0 mm 2 mps 721 mmHg 52%
    22:00 +12°C° 0 mm 2 mps 721 mmHg 53%
    23:00 +10°C° 0 mm 2 mps 722 mmHg 54%

    19 January, Saturday

    Time Temperature Precipitation Wind Pressure Humidity
    00:00 +10°C° 0 mm 2 mps 722 mmHg 57%
    01:00 +10°C° 0 mm 2 mps 722 mmHg 61%
    02:00 +9°C° 0 mm 2 mps 722 mmHg 64%
    03:00 +9°C° 0 mm 2 mps 722 mmHg 66%
    04:00 +9°C° 0 mm 2 mps 722 mmHg 68%
    05:00 +8°C° 0 mm 2 mps 722 mmHg 70%
    06:00 +8°C° 0 mm 2 mps 722 mmHg 68%
    07:00 +8°C° 0 mm 2 mps 722 mmHg 66%
    08:00 +8°C° 0 mm 3 mps 722 mmHg 64%
    09:00 +10°C° 0 mm 3 mps 722 mmHg 54%
    10:00 +12°C° 0 mm 3 mps 722 mmHg 44%
    11:00 +14°C° 0 mm 4 mps 722 mmHg 34%
    12:00 +15°C° 0 mm 4 mps 722 mmHg 32%
    13:00 +17°C° 0 mm 4 mps 721 mmHg 29%
    14:00 +18°C° 0 mm 4 mps 721 mmHg 27%
    15:00 +17°C° 0 mm 4 mps 720 mmHg 29%
    16:00 +17°C° 0 mm 3 mps 720 mmHg 30%
    17:00 +16°C° 0 mm 3 mps 720 mmHg 31%
    18:00 +14°C° 0 mm 3 mps 720 mmHg 32%
    19:00 +14°C° 0 mm 2 mps 720 mmHg 33%
    20:00 +13°C° 0 mm 2 mps 720 mmHg 34%
    21:00 +13°C° 0 mm 2 mps 720 mmHg 38%
    22:00 +12°C° 0 mm 2 mps 720 mmHg 42%
    23:00 +11°C° 0 mm 1 mps 720 mmHg 45%

    20 January, Sunday

    Time Temperature Precipitation Wind Pressure Humidity
    00:00 +10°C° 0 mm 2 mps 720 mmHg 52%
    01:00 +9°C° 0 mm 3 mps 721 mmHg 59%
    02:00 +7°C° 0 mm 4 mps 721 mmHg 67%
    03:00 +8°C° 0.1 mm 3 mps 722 mmHg 71%
    04:00 +7°C° 0.1 mm 3 mps 722 mmHg 76%
    05:00 +7°C° 0.1 mm 2 mps 722 mmHg 80%
    06:00 +6°C° 0.9 mm 2 mps 723 mmHg 83%
    07:00 +6°C° 0.9 mm 2 mps 723 mmHg 86%
    08:00 +5°C° 0.9 mm 2 mps 724 mmHg 88%
    09:00 +5°C° 0.7 mm 2 mps 724 mmHg 87%
    10:00 +5°C° 0.7 mm 2 mps 725 mmHg 86%
    11:00 +4°C° 0.7 mm 3 mps 725 mmHg 85%
    12:00 +5°C° 0.6 mm 3 mps 725 mmHg 84%
    13:00 +5°C° 0.6 mm 3 mps 725 mmHg 83%
    14:00 +5°C° 0.6 mm 3 mps 725 mmHg 82%
    15:00 +4°C° 0.7 mm 3 mps 725 mmHg 83%
    16:00 +4°C° 0.7 mm 3 mps 726 mmHg 85%
    17:00 +4°C° 0.7 mm 3 mps 726 mmHg 86%
    18:00 +4°C° 0.3 mm 3 mps 727 mmHg 85%
    19:00 +4°C° 0.3 mm 3 mps 727 mmHg 85%
    20:00 +4°C° 0.3 mm 3 mps 728 mmHg 84%
    21:00 +4°C° 0.3 mm 3 mps 728 mmHg 84%
    22:00 +3°C° 0.3 mm 3 mps 728 mmHg 83%
    23:00 +3°C° 0.3 mm 3 mps 729 mmHg 83%

    21 January, Monday

    Time Temperature Precipitation Wind Pressure Humidity
    00:00 +3°C° 0.4 mm 3 mps 728 mmHg 84%
    01:00 +2°C° 0.4 mm 3 mps 728 mmHg 85%
    02:00 +3°C° 0.4 mm 2 mps 728 mmHg 86%
    03:00 +3°C° 0.2 mm 2 mps 728 mmHg 86%
    04:00 +3°C° 0.2 mm 2 mps 728 mmHg 87%
    05:00 +4°C° 0.2 mm 1 mps 728 mmHg 87%
    06:00 +4°C° 0.2 mm 1 mps 728 mmHg 87%
    07:00 +4°C° 0.2 mm 1 mps 728 mmHg 87%
    08:00 +4°C° 0.2 mm 1 mps 728 mmHg 86%
    09:00 +4°C° 0.1 mm 1 mps 728 mmHg 84%
    10:00 +5°C° 0.1 mm 1 mps 728 mmHg 81%
    11:00 +5°C° 0.1 mm 1 mps 728 mmHg 78%
    12:00 +5°C° 0 mm 1 mps 728 mmHg 77%
    13:00 +5°C° 0 mm 2 mps 727 mmHg 75%
    14:00 +5°C° 0 mm 2 mps 727 mmHg 73%
    15:00 +5°C° 0 mm 2 mps 726 mmHg 73%
    16:00 +5°C° 0 mm 2 mps 726 mmHg 73%
    17:00 +5°C° 0 mm 2 mps 726 mmHg 73%
    18:00 +6°C° 0 mm 1 mps 726 mmHg 74%
    19:00 +5°C° 0 mm 1 mps 726 mmHg 75%
    20:00 +5°C° 0 mm 1 mps 726 mmHg 77%
    21:00 +5°C° 0 mm 1 mps 726 mmHg 78%
    22:00 +4°C° 0 mm 1 mps 726 mmHg 79%
    23:00 +3°C° 0 mm 0 mps 725 mmHg 80%
    Show more